EDT,Max TemperatureF,Mean TemperatureF,Min TemperatureF,Max Dew PointF,MeanDew PointF,Min DewpointF,Max Humidity, Mean Humidity, Min Humidity, Max Sea Level PressureIn, Mean Sea Level PressureIn, Min Sea Level PressureIn, Max VisibilityMiles, Mean VisibilityMiles, Min VisibilityMiles, Max Wind SpeedMPH, Mean Wind SpeedMPH, Max Gust SpeedMPH,PrecipitationIn, CloudCover, Events, WindDirDegrees
2013-6-1,89,74,60,71,66,59,97,73,46,30.01,29.95,29.88,10,10,8,9,2,18,0.00,0,,184
2013-6-2,87,75,66,71,68,65,93,74,57,29.89,29.82,29.77,10,10,5,9,4,20,0.02,2,Rain,188
2013-6-3,82,76,66,71,65,49,100,80,49,29.88,29.82,29.79,10,9,2,12,3,,0.33,7,Rain,307
2013-6-4,75,65,52,49,44,40,86,49,27,30.12,30.01,29.90,10,10,10,12,6,18,0.00,0,,326
2013-6-5,75,60,45,51,47,44,97,63,34,30.20,30.14,30.10,10,10,9,8,2,,0.00,0,,95
2013-6-6,73,61,50,61,55,49,100,85,49,30.13,30.07,29.99,10,8,2,9,2,25,0.27,5,Rain,119
2013-6-7,64,62,60,63,61,59,100,95,90,29.96,29.78,29.60,10,4,1,13,4,21,3.13,8,Rain,32
2013-6-8,78,66,57,64,60,55,97,83,62,30.05,29.83,29.59,10,8,1,10,5,,0.43,5,Rain,320
2013-6-9,82,68,53,63,58,52,100,82,42,30.17,30.11,30.06,10,6,1,8,1,,0.01,0,,235
2013-6-10,70,66,62,69,65,61,100,93,83,30.14,29.98,29.78,10,6,0,8,2,,1.17,7,Fog-Rain,92
2013-6-11,81,73,66,70,66,60,100,81,60,29.77,29.71,29.63,10,10,8,9,3,23,0.02,6,Rain,222
2013-6-12,81,72,61,60,55,51,90,59,35,29.84,29.79,29.72,10,10,10,15,6,28,0.00,1,,321
2013-6-13,66,60,57,63,60,55,100,92,82,29.82,29.59,29.43,10,6,0,12,3,22,1.40,7,Fog-Rain,24
2013-6-14,77,66,55,60,54,49,100,85,45,29.90,29.78,29.55,10,6,0,12,5,20,0.23,7,Fog-Rain,350
2013-6-15,81,65,50,60,53,50,100,86,38,30.01,29.94,29.90,10,5,0,8,0,,0.01,1,Fog,295
2013-6-16,82,68,54,65,59,52,97,74,45,29.99,29.89,29.78,10,9,6,12,2,32,0.00,2,,180
2013-6-17,87,73,60,70,63,59,100,85,49,29.91,29.87,29.83,10,6,0,7,1,,0.08,1,Fog-Rain,319
2013-6-18,82,70,59,69,63,59,100,91,56,29.89,29.86,29.80,10,5,1,7,1,,0.21,2,Rain,332
2013-6-19,78,68,57,61,53,43,94,67,32,30.16,30.00,29.88,10,10,10,9,5,17,0.00,3,,353
2013-6-20,81,66,52,61,56,51,97,70,43,30.26,30.22,30.17,10,10,4,14,2,32,0.01,1,,187
2013-6-21,82,68,53,60,56,53,100,70,41,30.29,30.26,30.22,10,9,2,8,1,,0.00,0,,187
2013-6-22,84,68,53,67,60,53,100,77,49,30.26,30.21,30.11,10,8,2,8,1,29,0.00,0,,193
2013-6-23,88,73,60,70,65,60,100,82,55,30.19,30.13,30.05,10,7,1,12,1,37,0.00,2,Rain,182
2013-6-24,93,78,66,72,68,58,100,85,43,30.07,30.03,29.96,10,5,0,7,1,,0.07,1,Fog-Rain,246
2013-6-25,91,78,64,74,66,63,100,86,45,29.99,29.93,29.81,10,4,0,8,1,,0.04,1,Fog-Rain,204
2013-6-26,89,80,71,72,67,64,90,71,48,29.85,29.81,29.77,10,10,9,8,2,,0.00,2,,253
2013-6-27,89,77,66,74,70,66,100,87,55,29.79,29.66,29.54,10,6,0,10,3,21,2.44,5,Fog-Rain,172
2013-6-28,86,78,71,72,69,65,100,79,57,29.55,29.51,29.46,10,9,6,8,4,16,0.00,4,,196
2013-6-29,86,75,64,69,66,61,100,77,46,29.69,29.58,29.48,10,9,4,7,1,,0.00,4,,244
2013-6-30,82,74,66,76,70,64,100,86,71,29.89,29.80,29.70,10,8,2,8,2,,0.01,4,Rain,176